User: anonymous   Login
Location: Columbia
(38.9520°N, 92.3340°W)
Time: 04:33:19
(UTC-06:00)
Language:

Cosmos 1603 - Orbit

View from above orbital plane
View from above orbital plane
View from above satellite
View from above satellite

Ground track
Ground track

The orbit data is extracted from the following two-line orbital elements,

1 15333U 84106A   17022.48352713  .00000006  00000-0  27870-4 0  9993
2 15333  71.0274  37.4721 0017405  65.3016 294.9916 14.14055548667668
Epoch (UTC): 22 January 2017 11:36:16
Eccentricity: 0.0017405
inclination: 71.0274°
perigee height: 833 km
apogee height: 858 km
right ascension of ascending node: 37.4721°
argument of perigee: 65.3016°
revolutions per day: 14.14055548
mean anomaly at epoch: 294.9916°
orbit number at epoch: 66766

The dashed part of the orbit path shows where the satellite is in the earth's shadow,  

DLR